Location: Unspecified
(49.2170°N, 0.0000°E)
Time: 09:56:28
(UTC+00:00)

Transit 2A - Pass Details

Date: 24 June 2019
Orbit: 594 x 964 km, 66.7° (Epoch: 19 July)

Event Time Altitude Azimuth Distance (km) Brightness Sun altitude
Rises 06:15:56 0° 322° (NW) 3,551 9.2 19.7°
Reaches altitude 10° 06:19:07 10° 336° (NNW) 2,552 8.7 20.2°
Maximum altitude 06:23:44 23° 28° (NNE) 1,713 8.6 20.9°
Drops below altitude 10° 06:28:01 10° 80° (E) 2,351 10.8 21.6°
Sets 06:30:48 0° 95° (E) 3,206 10.5 22.0°
